This demonstration page uses our WeatherBlox Daily Observations layout. Learn more.

Left ArrowRight Arrow

31.84235, -102.49876

Hourly Observations for May 2, 2015

Temp ( °F °C ) Dew Point ( °F °C ) Humidity (%) Winds ( mph kmh ) Pressure ( in mb ) Visibility ( mi km ) Precip ( " mm )
12:53 am 00:53 Clear 68 20 32 0 26 26 S 13 20 29.93 1014 10 16 0.00 0.00
1:53 am 01:53 Clear 67 19.4 35 1.7 31 31 S 15 24 29.93 1014 10 16 0.00 0.00
2:53 am 02:53 Clear 65 18.3 36 2.2 34 34 S 14 22 29.93 1014 10 16 0.00 0.00
3:53 am 03:53 Clear 63 17.2 37 2.8 38 38 S 10 17 29.91 1013 10 16 0.00 0.00
4:53 am 04:53 Clear 62 16.7 37 2.8 40 40 S 12 19 29.91 1013 10 16 0.00 0.00
5:53 am 05:53 Clear 62 16.7 38 3.3 41 41 S 14 22 29.91 1013 10 16 0.00 0.00
6:53 am 06:53 Clear 60 15.6 41 5 50 50 S 12 19 29.92 1013 10 16 0.00 0.00
7:53 am 07:53 Sunny 61 16.1 42 5.6 50 50 S 12 19 29.94 1014 10 16 0.00 0.00
8:53 am 08:53 Sunny 65 18.3 44 6.7 47 47 S 15 24 29.96 1015 10 16 0.00 0.00
9:53 am 09:53 Sunny 69 20.6 45 7.2 42 42 S 21 33 29.97 1015 10 16 0.00 0.00
10:53 am 10:53 Sunny 74 23.3 45 7.2 36 36 S 15 24 29.96 1015 10 16 0.00 0.00
11:53 am 11:53 Sunny 77 25 44 6.7 31 31 S 21 33 29.95 1014 10 16 0.00 0.00
12:53 pm 12:53 Sunny 80 26.7 40 4.4 24 24 SSE 22 35 29.93 1014 10 16 0.00 0.00
1:53 pm 13:53 Sunny 82 27.8 41 5 23 23 S 18 30 29.90 1013 10 16 0.00 0.00
2:53 pm 14:53 Sunny 84 28.9 38 3.3 19 19 SSE 20 31 29.87 1012 10 16 0.00 0.00
3:53 pm 15:53 Sunny 84 28.9 37 2.8 19 19 S 17 28 29.84 1010 10 16 0.00 0.00
4:53 pm 16:53 Sunny 85 29.4 38 3.3 19 19 S 14 22 29.81 1009 10 16 0.00 0.00
5:53 pm 17:53 Sunny 85 29.4 38 3.3 19 19 S 16 26 29.79 1009 10 16 0.00 0.00
6:53 pm 18:53 Sunny 84 28.9 40 4.4 21 21 S 20 31 29.79 1009 10 16 0.00 0.00
7:53 pm 19:53 Sunny 81 27.2 40 4.4 23 23 S 17 28 29.80 1009 10 16 0.00 0.00
8:53 pm 20:53 Clear 77 25 41 5 28 28 SSE 13 20 29.80 1009 10 16 0.00 0.00
9:53 pm 21:53 Clear 75 23.9 41 5 29 29 S 15 24 29.82 1010 10 16 0.00 0.00
10:53 pm 22:53 Clear 72 22.2 41 5 33 33 S 14 22 29.84 1011 10 16 0.00 0.00
11:53 pm 23:53 Clear 69 20.6 41 5 36 36 S 16 26 29.85 1011 10 16 0.00 0.00

Powered by AerisWeather